Theta_e
321 320 320 322 322 321 319 319 319 318 319 320 317 321 328 326 328 336 335 333 335 334 331 329 327 325 325 323 323 322 320 321 320 319 319 319 318 318 318 319 320 321 320 320 319 319 319 319 319 319 319 319 319 319 319 317 317 316 316 316 316 316 316 315 315 315 315 314 314 313 312 312 311 311 312 312 312 313 314 314 313 313 313 315 316 318 319
322 324 325 324 323 324 326 327 329 329 328 325 320 322 330 332 333 336 335 333 335 332 329 327 326 324 323 322 321 320 320 320 320 319 319 318 318 318 318 319 320 320 320 318 318 318 318 318 318 318 318 318 318 318 317 316 316 315 315 315 316 316 315 315 315 315 314 314 313 312 311 310 310 310 310 310 310 310 311 312 312 312 312 313 314 315 317
324 325 327 327 328 328 329 332 335 337 338 335 332 335 340 341 339 335 333 334 335 331 327 325 324 323 322 321 320 320 320 320 320 319 318 318 318 318 318 319 319 320 319 317 317 318 317 317 317 317 317 317 317 317 316 315 315 314 314 315 315 315 314 314 314 314 313 313 312 312 311 310 309 309 309 309 308 308 309 309 310 310 311 311 311 312 315
327 327 327 328 332 331 331 337 335 334 339 339 337 339 339 337 335 334 334 335 332 329 326 324 324 323 322 321 320 320 320 319 319 319 318 318 318 318 318 319 319 319 318 316 317 317 316 317 316 316 316 316 316 316 315 314 314 313 313 313 314 314 314 314 313 313 313 312 311 311 310 309 308 308 307 307 307 307 307 307 307 308 308 308 309 310 313
328 331 331 331 334 332 332 334 329 327 333 334 333 337 338 335 333 332 333 332 329 326 325 324 324 323 322 321 320 319 320 319 318 318 318 318 318 318 318 318 317 316 314 313 315 315 315 316 316 316 316 316 316 315 314 313 313 313 313 313 313 313 313 313 313 312 312 311 310 310 309 309 308 307 307 306 306 305 305 305 305 305 305 306 308 309 312
331 333 334 333 332 329 329 328 324 325 330 330 329 333 335 336 335 332 330 329 326 324 324 324 324 323 322 321 319 319 319 318 318 318 317 317 318 317 317 316 314 312 311 312 313 314 315 315 316 316 315 315 315 314 313 313 312 312 312 312 312 312 312 312 312 311 311 310 309 309 308 308 308 307 306 306 305 305 304 304 304 304 304 305 306 308 309
332 331 333 333 330 327 327 327 325 326 327 326 326 327 329 332 333 330 328 326 325 324 323 323 322 322 321 320 320 319 319 318 318 318 317 317 317 316 315 314 313 311 311 312 312 313 314 315 315 315 314 314 314 313 312 312 311 311 311 311 311 311 311 311 310 309 309 308 308 308 308 307 307 307 306 305 304 304 303 303 302 302 302 303 304 305 306
329 329 330 330 328 326 326 326 325 325 327 327 326 326 328 328 328 327 326 325 324 323 322 322 321 320 320 320 320 319 318 318 318 317 317 315 314 313 313 312 311 310 311 311 312 313 314 314 314 314 314 313 313 312 312 311 311 311 311 310 310 309 309 309 308 307 306 306 306 306 306 306 306 306 305 305 303 303 302 302 301 301 302 302 302 303 304
328 329 327 325 326 328 328 327 327 327 329 330 327 325 327 328 325 325 325 324 323 322 321 320 318 318 318 319 319 318 316 317 316 315 313 312 311 310 310 310 310 310 311 311 312 313 313 314 314 313 313 313 312 312 311 310 310 310 310 309 309 308 307 306 305 304 304 304 304 304 305 305 305 305 304 304 303 302 301 301 301 300 300 301 301 301 302
327 329 326 325 328 330 328 328 328 327 328 329 326 324 326 326 324 324 324 322 321 320 318 318 318 318 319 319 318 316 314 314 313 311 310 309 309 309 309 309 310 310 311 311 312 312 312 313 313 312 312 312 312 311 311 310 310 309 309 308 308 307 306 305 304 303 303 302 302 302 303 303 303 303 303 302 301 300 300 300 300 300 300 300 300 301 301
326 328 328 328 329 327 326 326 327 327 328 327 324 325 327 325 323 322 322 320 319 318 318 318 318 319 320 319 317 314 312 311 310 309 308 308 308 308 308 308 309 309 310 310 311 311 312 312 312 312 312 311 311 310 310 309 308 307 307 306 306 305 304 303 303 303 303 303 303 302 302 302 302 302 302 301 301 300 300 299 299 299 299 300 300 300 300
327 329 329 328 327 326 324 325 326 328 329 326 325 328 328 323 320 321 320 318 318 317 318 319 319 320 319 317 315 312 311 310 309 308 307 307 307 307 307 307 308 308 309 310 310 310 310 311 311 311 311 311 310 309 308 307 306 305 304 304 304 303 303 302 302 302 302 302 302 302 302 302 302 302 302 301 301 301 301 301 300 299 298 299 299 299 299
328 330 329 326 326 325 324 323 324 325 326 326 327 329 326 320 319 319 317 316 317 317 317 317 317 316 315 313 312 311 310 309 308 307 307 307 306 306 306 307 307 307 308 308 309 309 309 310 311 311 310 310 309 309 308 306 305 304 304 304 304 303 303 302 302 301 300 300 300 300 301 301 301 302 302 301 302 301 301 301 301 300 299 299 298 298 299
325 327 327 325 324 323 322 322 322 322 325 328 328 324 319 317 318 317 315 315 316 315 314 313 313 313 312 311 311 310 309 308 307 306 306 306 306 306 306 306 306 306 306 306 307 308 308 309 310 310 309 309 309 308 307 306 305 304 304 304 304 304 303 303 302 299 297 297 298 298 299 300 301 301 301 301 301 301 300 300 301 301 300 299 299 298 298
324 324 325 326 324 321 320 322 322 323 325 326 322 317 316 316 316 315 315 315 313 312 311 311 311 311 311 310 310 309 308 307 306 306 306 306 306 306 306 306 305 305 305 305 305 306 307 307 308 307 307 307 306 306 305 305 304 303 302 302 302 302 303 303 301 298 296 296 296 296 297 298 299 300 301 301 302 301 300 300 300 301 300 299 299 298 298
323 325 324 324 323 321 321 322 321 321 322 321 317 316 316 315 314 314 313 313 311 310 310 311 311 310 310 309 308 307 306 306 305 305 306 306 306 306 306 306 305 304 304 304 304 304 305 305 305 305 305 305 304 304 303 303 303 302 301 300 299 300 302 302 300 298 297 297 296 296 296 296 296 297 298 299 301 301 300 299 299 300 300 299 298 297 297
319 323 322 321 320 320 320 319 318 317 317 316 315 315 315 314 313 312 311 310 310 310 310 310 310 309 309 308 306 305 305 305 305 305 305 306 306 306 306 306 305 304 304 304 304 304 303 303 303 303 303 303 303 302 302 301 301 301 300 298 297 298 300 300 299 299 298 298 297 297 297 296 296 296 296 297 298 299 299 299 299 299 299 299 298 297 296
318 319 319 319 319 319 317 317 316 316 315 315 314 313 313 313 312 310 309 310 310 309 309 309 309 308 307 306 305 305 305 305 305 305 305 306 306 306 306 306 305 304 304 304 304 304 304 303 303 303 302 302 302 302 302 301 301 300 300 299 299 299 299 299 299 299 299 298 298 297 297 297 297 296 296 296 296 297 298 298 298 298 298 298 297 297 296
318 319 319 319 319 317 316 315 315 314 314 314 313 312 311 311 310 309 309 309 309 308 308 308 308 307 306 305 305 305 305 305 305 305 305 306 306 306 306 306 305 305 305 304 304 304 304 304 303 303 303 303 302 302 301 301 301 301 301 301 300 300 300 300 300 300 299 299 298 297 297 297 296 296 296 296 295 295 296 297 298 298 297 297 297 297 297
318 318 318 318 318 317 315 315 314 313 313 312 311 310 309 309 309 309 308 308 308 308 308 307 307 306 306 306 306 306 305 305 304 304 305 305 306 306 306 306 305 305 305 304 304 304 303 303 303 303 303 303 303 302 302 302 301 302 302 301 301 301 301 301 300 300 300 299 298 297 297 297 296 296 296 296 296 295 295 296 297 297 297 297 297 297 297
316 317 317 317 318 318 316 314 314 312 311 310 310 309 309 308 308 308 307 308 307 307 307 306 305 305 304 304 304 305 305 304 304 304 305 305 306 306 306 305 305 305 305 304 304 303 303 302 302 302 302 302 302 302 302 302 302 302 301 301 301 301 301 301 301 300 300 299 299 298 297 297 296 296 296 296 296 295 295 295 295 296 296 297 297 297 297
316 317 317 317 318 317 315 313 311 311 310 309 309 309 308 307 307 307 307 307 306 306 306 305 304 303 303 302 302 303 303 303 303 304 304 305 305 305 305 305 305 304 304 304 304 304 303 303 303 302 302 302 301 301 301 301 301 301 301 301 301 301 301 301 301 301 300 300 299 298 298 297 297 296 296 296 295 295 295 295 295 295 295 296 296 296 297
316 316 316 316 316 314 313 311 310 310 309 308 308 308 307 307 306 306 306 306 306 305 305 304 303 303 302 302 302 302 302 302 303 304 304 304 305 304 304 304 304 303 303 303 303 303 303 303 303 302 302 302 302 302 301 301 301 301 300 300 301 300 300 300 300 300 301 300 300 299 298 298 298 297 296 296 295 296 296 296 295 295 295 295 296 296 296
314 315 315 315 314 312 311 310 309 309 308 307 307 307 306 306 306 306 306 305 305 304 304 303 303 303 302 302 302 302 302 302 303 303 303 303 303 303 303 303 303 303 303 303 303 302 302 302 301 302 302 302 302 302 302 301 301 301 301 300 300 300 300 300 299 299 300 300 300 300 299 299 299 298 297 296 296 296 296 296 296 296 295 295 295 296 296
314 314 313 312 312 312 311 310 309 309 308 307 307 306 306 306 306 305 305 305 304 304 303 303 303 302 302 302 302 302 302 302 302 302 302 303 303 303 303 303 303 303 303 303 302 302 301 301 301 300 300 301 301 302 302 301 301 301 301 301 300 300 300 300 299 299 299 299 299 300 299 299 299 299 298 298 297 297 297 297 296 296 296 296 296 296 295
313 313 312 311 311 311 311 311 310 309 308 308 307 306 306 306 305 305 305 304 304 304 303 302 302 301 301 301 301 301 301 301 302 302 302 302 302 302 302 303 303 303 303 302 302 302 301 301 301 300 300 300 300 300 301 301 300 300 300 300 300 300 300 299 299 299 299 299 299 299 299 299 298 298 298 298 298 298 297 296 296 296 296 296 296 296 296
312 311 311 311 311 311 311 310 309 308 308 307 307 306 306 306 305 305 304 304 304 303 302 302 301 301 301 301 300 300 301 301 302 302 302 302 302 302 303 303 303 303 302 302 301 302 302 302 302 301 301 300 300 300 300 300 299 299 299 299 299 299 299 299 299 299 299 299 299 299 298 298 298 298 297 297 298 298 297 296 295 295 295 296 296 296 296
312 312 312 312 311 311 310 309 308 307 307 306 306 306 305 305 304 304 304 303 303 303 302 302 301 301 301 301 300 300 300 301 301 302 302 302 302 302 303 302 302 302 302 302 302 301 301 301 301 300 300 300 300 300 300 300 300 300 299 299 299 299 299 299 298 298 298 298 298 298 298 298 298 297 297 297 297 297 296 296 295 295 295 295 296 296 296
312 312 311 311 310 309 308 307 307 307 306 306 305 305 304 304 304 304 304 303 303 303 302 302 301 301 301 300 300 300 301 301 301 302 302 302 302 302 302 302 302 302 302 302 301 301 301 300 300 299 300 300 300 300 300 300 300 300 300 299 299 299 299 299 299 298 298 298 298 298 297 297 297 297 297 297 297 297 296 296 295 295 295 295 296 296 296
310 311 310 309 308 307 307 307 307 306 306 306 305 304 304 304 304 304 303 303 303 303 302 301 301 301 301 300 301 301 301 301 302 302 302 302 301 301 301 302 302 302 302 301 301 301 300 299 299 299 298 298 299 300 300 300 300 299 299 299 299 299 299 298 298 298 298 298 297 297 297 297 297 297 297 296 296 296 296 296 295 295 295 295 295 296 296
309 310 310 309 308 307 307 306 306 306 306 305 305 305 304 304 304 304 304 303 302 302 301 301 300 301 301 301 301 302 302 302 302 302 301 301 301 301 301 301 301 301 301 301 301 300 300 299 299 299 298 298 298 298 299 299 299 298 299 299 298 298 298 298 298 298 298 298 297 297 297 297 297 296 296 296 296 296 296 296 296 296 296 296 295 295 296
308 309 309 308 307 306 306 306 306 306 305 305 305 304 304 304 304 304 303 303 302 301 300 300 300 301 301 301 302 302 302 302 302 302 301 301 301 301 301 301 301 301 301 301 300 300 300 300 300 300 300 299 298 298 298 298 298 298 298 298 298 298 298 298 298 298 297 297 297 297 297 297 297 297 296 296 296 296 296 296 296 296 296 296 296 296 296
308 308 308 307 306 306 306 306 306 305 305 305 305 304 303 303 303 302 302 302 301 301 301 301 301 301 301 301 301 301 302 302 301 301 301 302 301 302 302 302 301 301 301 300 300 300 300 301 301 301 300 300 299 299 298 298 298 298 298 298 298 298 298 298 298 297 297 297 297 297 297 297 297 297 296 296 296 296 296 296 296 296 296 296 296 296 296
307 307 307 306 306 305 305 305 305 305 305 304 304 303 303 303 302 302 302 302 302 302 302 301 301 302 302 301 301 301 301 301 301 301 301 301 301 301 301 301 301 301 301 300 300 300 300 300 300 300 300 300 299 299 299 299 299 298 298 298 298 298 298 298 298 297 297 297 297 297 297 297 297 297 297 297 296 296 296 296 296 296 296 296 296 296 296
306 306 305 305 304 304 304 304 304 305 304 304 304 303 303 303 303 302 302 302 302 302 302 302 302 302 301 300 301 301 301 301 300 301 301 301 301 301 301 301 301 301 301 300 300 300 300 300 300 300 301 301 300 300 299 299 299 298 298 298 298 298 298 298 298 297 297 297 297 297 297 297 297 297 297 297 297 296 296 296 296 296 296 296 296 296 296
305 305 304 304 304 303 303 304 303 303 304 303 303 303 303 302 302 302 302 302 302 302 301 301 302 301 300 300 300 301 301 301 301 300 301 301 301 301 301 301 301 301 301 301 300 300 300 300 300 301 301 300 300 299 299 299 298 298 298 298 298 298 298 298 298 297 297 297 297 297 297 297 297 297 297 297 297 296 296 296 296 296 296 296 296 296 296
305 305 304 304 304 303 303 303 303 303 303 302 302 302 302 301 301 301 301 301 300 300 300 300 300 299 299 300 301 301 300 300 300 300 301 301 301 301 301 301 301 301 301 300 300 300 300 300 300 300 300 300 300 300 299 299 299 298 298 298 298 298 298 298 298 297 297 297 297 298 297 297 297 297 297 297 297 297 297 297 296 296 296 296 296 296 296
304 304 304 304 303 302 302 302 302 301 300 300 300 300 300 300 300 300 299 299 299 299 299 299 299 299 299 300 300 300 300 300 300 301 301 301 301 301 301 301 301 301 301 301 301 300 300 300 299 299 299 299 300 300 299 299 299 299 298 298 298 298 298 298 297 297 297 297 298 298 297 297 297 297 296 297 297 297 297 297 297 297 296 296 296 296 296
303 303 302 302 300 300 300 300 300 299 299 299 299 299 299 300 300 299 298 297 298 298 299 299 299 299 299 299 299 299 300 300 300 301 301 301 301 301 301 301 301 301 301 301 301 300 300 300 299 298 297 297 299 300 299 299 299 299 298 298 298 298 298 298 297 297 298 297 297 298 297 297 297 297 296 296 297 297 297 297 296 296 296 296 296 296 296
302 301 301 300 299 299 299 299 299 298 298 299 299 299 299 300 300 299 297 297 297 297 298 298 298 299 299 299 299 299 300 300 300 301 301 301 301 301 301 301 301 301 301 300 300 299 299 300 299 298 296 296 298 300 299 298 299 299 298 298 298 298 298 298 298 298 298 298 297 298 297 297 297 297 297 297 297 297 296 296 296 296 296 296 296 296 296
301 300 300 299 299 300 299 299 299 299 298 299 299 299 299 300 299 298 297 296 296 296 297 297 298 298 298 298 299 299 300 300 300 301 301 301 300 300 301 301 301 301 300 300 299 298 299 300 299 297 294 295 297 299 298 298 299 299 298 298 298 298 298 298 298 298 298 298 298 298 298 297 297 297 297 297 297 297 296 296 296 296 296 296 296 296 296
301 300 300 300 300 301 300 300 300 300 299 300 299 299 299 300 299 298 297 296 296 296 296 296 296 297 298 298 299 299 299 300 300 300 300 300 299 299 300 300 300 300 300 299 298 298 300 301 299 297 295 294 296 298 299 298 299 299 297 297 298 298 298 298 298 298 298 298 298 298 298 297 297 297 297 297 297 297 296 296 296 296 296 296 296 296 296
301 301 300 300 301 301 300 300 300 300 300 300 300 300 300 300 299 298 297 296 296 295 295 295 295 296 297 297 298 298 298 299 299 300 300 299 299 299 300 299 299 299 300 300 298 298 301 301 300 298 297 296 296 297 298 298 298 298 298 297 297 298 298 298 298 298 298 298 298 297 297 297 297 297 297 297 297 297 296 296 296 296 296 296 296 296 296
301 301 301 301 301 301 300 300 300 300 300 300 300 300 300 299 298 297 297 296 295 295 295 294 294 295 296 296 297 297 297 298 299 299 298 298 298 299 299 299 298 298 300 301 298 297 299 301 300 299 299 298 297 297 297 297 298 298 298 298 297 297 298 298 298 298 298 298 298 297 297 297 297 297 297 297 297 296 296 296 296 296 296 296 296 296 296
302 301 301 301 301 300 300 300 300 300 300 300 300 300 300 299 298 297 296 296 296 296 296 295 295 296 296 296 296 296 297 298 299 298 297 297 297 298 298 298 297 296 299 301 298 294 296 300 300 299 299 299 298 296 296 296 297 298 298 298 298 298 298 298 298 298 298 298 297 297 297 297 297 297 297 297 296 296 296 296 296 296 295 296 296 296 295
302 302 301 301 300 300 300 301 300 300 300 300 299 299 299 299 298 297 296 296 297 297 296 296 296 296 296 296 296 296 296 297 297 297 297 297 298 298 298 297 295 294 297 299 297 294 294 298 299 299 298 299 298 297 296 296 296 297 298 298 298 298 298 298 298 297 297 297 297 297 297 297 297 297 297 297 296 296 296 296 296 296 296 296 295 295 295
302 302 301 301 301 301 301 301 300 300 299 298 297 297 298 298 297 296 296 297 297 297 297 296 296 296 296 295 295 295 295 295 295 296 297 298 299 299 298 297 296 295 295 297 296 294 295 297 298 298 298 298 297 296 296 296 296 297 298 298 298 298 298 298 298 297 297 297 297 297 297 297 297 297 297 297 296 296 296 296 296 296 296 295 295 295 295
302 301 301 301 301 301 301 300 300 300 299 298 297 297 298 298 297 296 297 297 297 296 297 297 296 296 296 296 296 295 295 296 296 296 297 298 299 299 299 298 298 296 296 296 296 296 296 297 297 297 298 297 296 296 297 296 296 296 297 298 298 298 298 298 297 297 297 297 297 297 297 297 297 297 297 296 296 296 297 297 296 296 295 295 295 295 295
301 301 301 301 300 301 301 300 299 299 299 298 297 297 297 297 297 297 297 297 296 297 297 298 297 296 296 297 297 297 297 297 298 298 298 299 300 300 299 299 298 297 296 296 296 297 297 298 298 297 297 297 297 296 297 297 296 296 297 297 298 297 298 297 297 297 297 297 297 297 297 297 296 296 296 296 296 295 296 296 296 296 295 295 295 295 295
301 301 301 301 301 301 301 300 299 300 300 298 297 297 297 297 297 298 298 298 297 297 298 299 299 298 298 298 299 299 299 299 299 299 300 300 300 300 299 299 298 297 297 296 296 297 297 298 298 297 297 297 297 297 297 297 297 297 297 297 297 297 297 297 297 297 297 297 297 297 296 296 296 296 296 296 296 295 295 295 295 295 295 295 295 295 295
301 301 301 301 301 301 301 300 300 300 300 299 297 296 297 297 297 298 299 299 298 298 299 300 300 300 299 299 299 300 300 300 300 300 300 301 301 300 300 299 299 298 297 297 296 297 297 298 297 297 297 297 297 297 297 297 297 297 297 297 297 297 297 297 297 297 297 297 296 297 297 297 296 296 296 296 296 296 295 295 295 295 295 295 295 295 295
302 302 302 301 301 301 301 301 301 301 300 299 297 296 296 297 297 298 299 299 299 299 299 299 299 299 299 299 299 299 300 300 301 301 301 301 300 300 300 299 299 298 297 297 297 297 297 297 297 297 297 297 297 297 297 297 297 297 297 297 297 297 297 297 297 297 297 297 297 297 297 297 296 296 296 296 296 296 295 295 295 295 295 295 295 295 295
Wind_Speed
5 1 3 5 6 3 3 3 6 7 7 10 11 8 5 5 5 6 12 16 17 15 14 14 14 14 14 13 12 11 11 11 11 11 11 11 9 8 7 5 4 4 3 3 7 10 12 14 15 14 12 12 15 20 24 26 24 24 24 23 22 22 23 23 22 22 22 23 23 22 23 24 24 24 24 25 27 27 27 26 26 26 27 29 29 29 26
5 3 5 7 8 6 6 6 4 5 6 7 10 8 5 5 6 12 16 13 10 11 12 13 12 12 12 12 11 11 12 12 12 11 11 11 9 8 7 5 4 4 3 5 9 11 13 14 13 12 14 18 21 24 26 26 24 24 25 24 23 22 23 24 22 22 22 22 22 23 24 24 25 25 25 26 27 28 28 28 28 29 30 31 32 32 32
4 4 5 5 6 6 5 6 9 10 9 6 3 3 7 9 9 14 17 11 6 8 11 13 12 11 12 12 12 11 11 12 12 12 12 11 10 8 7 6 5 4 3 7 10 12 14 14 14 16 19 23 26 27 27 26 24 24 25 25 23 23 23 23 22 22 22 22 22 23 24 24 25 26 26 27 27 27 28 29 29 30 31 31 31 32 34
3 5 5 4 6 7 6 7 10 11 8 5 3 2 4 9 15 17 15 9 5 8 13 13 12 12 13 13 13 11 10 10 11 12 13 12 10 8 7 5 4 3 4 6 7 11 14 15 18 20 21 23 27 27 26 25 25 26 26 25 24 24 23 23 23 23 22 22 23 23 24 25 26 26 27 28 28 28 28 29 30 31 32 33 32 32 33
3 6 6 5 6 6 5 3 5 6 6 7 7 7 6 7 16 16 10 9 10 13 16 15 14 14 13 12 11 10 10 11 11 12 12 11 10 8 6 5 5 5 6 8 10 13 15 16 19 20 21 25 27 26 25 25 26 26 26 25 24 24 23 23 24 23 22 22 23 24 24 25 25 27 29 30 29 29 28 28 30 32 33 34 34 34 34
1 6 6 6 4 0 4 2 3 3 3 7 8 6 7 5 6 8 8 11 15 16 17 17 16 14 12 11 10 9 10 10 11 11 11 11 10 8 6 6 7 9 11 12 13 15 15 17 19 20 23 27 28 26 26 26 26 26 24 24 25 24 24 24 23 23 22 23 24 25 25 25 26 27 28 28 28 28 28 29 31 32 33 34 35 35 35
1 3 5 4 2 4 3 3 4 2 5 10 9 7 7 8 9 14 15 14 15 15 15 15 15 13 11 10 9 9 10 10 11 11 10 9 10 8 8 7 8 11 13 14 16 16 13 16 21 22 25 28 28 28 28 27 25 24 23 23 24 25 25 25 24 23 23 24 25 26 26 27 28 28 28 28 27 27 28 30 30 31 33 34 35 35 36
2 2 4 2 4 3 2 3 4 2 6 10 6 8 9 9 10 15 17 14 14 15 15 14 14 13 12 9 6 7 10 11 10 10 9 9 9 9 10 10 10 12 12 14 18 18 15 19 24 25 26 28 28 28 27 26 25 23 23 24 25 25 26 25 25 24 24 25 25 25 25 26 27 27 27 27 27 27 29 30 31 32 34 35 36 36 36
3 3 2 1 1 3 2 1 1 2 3 6 4 1 4 6 7 12 15 15 15 15 15 15 15 15 14 9 6 5 9 11 11 11 12 13 12 13 15 15 14 13 12 14 18 19 20 23 25 26 28 28 29 28 26 25 24 24 25 25 25 26 27 26 26 26 26 27 27 27 27 28 27 26 26 25 26 27 30 31 32 32 33 34 36 37 38
2 5 3 1 1 2 3 3 3 3 2 5 8 3 3 3 4 10 14 15 15 15 16 16 16 15 13 8 4 5 10 12 13 13 16 18 18 16 16 16 15 15 15 16 18 20 24 25 25 27 28 29 29 27 24 23 24 25 26 25 25 26 26 26 26 26 26 28 29 29 30 30 29 28 27 27 26 28 30 32 31 31 32 34 36 37 39
2 5 3 2 2 3 4 2 4 3 2 4 8 4 2 2 2 7 12 14 14 15 16 17 16 13 10 7 4 5 9 12 12 12 14 18 19 18 17 17 17 17 17 18 19 21 24 25 26 27 28 28 29 26 24 25 26 26 26 26 25 26 25 26 26 26 26 27 27 27 28 27 27 27 27 27 27 29 31 32 32 32 33 35 36 36 37
3 4 2 1 1 2 2 3 1 2 1 3 7 3 5 5 5 7 12 14 13 13 14 14 11 9 9 9 6 7 10 12 13 14 15 16 18 18 18 18 18 18 18 19 20 20 21 22 25 27 28 29 28 26 25 26 27 27 27 27 27 27 27 28 28 28 28 27 26 25 25 24 24 24 24 24 25 27 29 30 32 32 33 34 35 34 34
4 4 3 0 2 2 1 3 5 5 2 2 4 5 5 8 10 8 10 13 12 11 10 7 4 5 8 11 10 10 11 12 13 16 18 18 19 19 19 18 18 19 19 20 21 20 19 20 24 26 27 26 25 25 25 26 26 25 25 25 26 27 27 28 29 28 27 26 25 25 24 24 24 25 24 24 24 25 26 27 29 31 31 33 34 33 33
2 3 3 1 2 1 1 3 6 4 2 1 3 3 6 12 13 10 10 11 10 9 7 6 7 9 12 13 12 12 12 10 11 14 16 16 17 19 20 19 20 22 22 23 23 21 21 23 24 25 26 25 24 24 24 25 25 24 23 23 23 24 25 26 28 28 28 27 26 26 25 25 26 26 26 27 27 26 26 27 27 28 29 30 31 32 33
2 3 2 2 1 1 1 4 4 1 3 4 4 6 8 10 11 11 10 9 8 8 8 10 13 14 13 13 12 12 11 10 12 14 15 15 16 19 20 20 21 24 24 23 23 22 22 23 24 24 26 26 26 25 25 24 24 24 24 24 24 24 26 28 29 30 31 30 30 30 29 29 28 28 27 27 27 27 28 28 27 27 27 28 29 31 32
1 3 2 2 2 3 2 1 0 1 1 3 6 9 9 8 8 9 8 7 8 10 11 13 14 14 13 12 12 12 12 11 12 14 15 16 16 18 19 20 22 24 24 23 23 23 21 22 23 23 25 25 25 25 24 23 23 24 25 25 25 26 27 28 28 29 32 33 33 34 34 34 34 32 30 29 28 28 28 28 27 26 26 26 27 28 29
1 3 3 3 2 1 3 5 5 5 7 8 8 9 9 8 7 6 6 8 10 11 13 14 13 13 12 12 11 12 12 11 12 13 15 17 19 20 21 22 23 24 24 23 23 22 21 21 22 22 23 24 25 24 23 22 23 24 25 27 29 30 29 28 27 27 30 32 34 35 35 36 36 35 33 32 30 28 28 28 28 27 26 25 26 26 27
3 4 2 1 3 6 7 7 7 7 9 9 9 10 8 6 7 7 7 9 11 12 13 14 12 11 12 13 12 11 11 11 12 15 17 17 19 21 22 22 23 24 23 23 23 22 21 21 21 21 22 23 24 22 21 21 22 23 24 25 27 29 29 28 28 27 27 28 30 33 35 36 36 35 35 35 33 30 29 28 27 27 26 25 25 25 26
2 2 1 1 5 7 8 8 8 9 9 8 8 9 8 7 9 9 9 10 12 11 12 13 13 13 13 14 13 11 9 9 11 15 16 16 18 21 22 23 24 23 23 22 21 21 21 20 21 21 21 22 23 22 21 20 21 21 21 22 22 23 25 26 27 27 27 26 27 30 32 34 36 36 37 37 37 35 31 28 25 25 25 25 25 25 25
3 2 2 3 7 7 7 8 7 7 8 9 9 9 9 10 10 9 10 11 11 10 10 12 14 14 12 12 12 10 7 8 11 14 16 18 20 21 22 23 23 22 22 21 21 21 21 21 21 22 21 21 20 20 20 20 20 20 19 19 19 20 20 22 24 25 26 26 27 29 31 32 34 34 35 36 37 36 33 30 26 22 22 22 23 23 23
5 3 4 5 7 7 6 8 8 8 9 10 10 11 11 11 11 11 11 11 10 11 11 11 13 14 11 10 11 10 8 9 11 13 16 19 20 20 21 24 23 22 22 22 22 22 21 21 21 22 22 21 20 19 18 18 19 21 21 21 22 21 19 19 20 21 23 24 26 27 29 30 31 32 32 33 34 34 33 33 30 25 21 19 18 19 20
3 3 5 6 6 5 5 7 10 11 11 11 11 11 11 11 11 12 12 11 12 13 14 14 13 13 11 11 13 11 9 11 13 15 17 18 18 18 21 24 23 22 22 21 21 21 21 20 20 21 21 21 20 19 19 19 20 22 22 22 22 22 21 19 17 17 18 21 22 24 26 27 28 29 30 31 32 33 33 33 32 31 27 23 19 19 20
4 6 6 5 6 6 7 9 10 10 11 11 11 10 11 11 11 11 12 13 12 12 13 16 16 14 13 16 15 12 12 15 17 17 16 15 16 19 23 25 25 23 22 20 20 21 21 21 22 22 22 22 21 20 20 20 21 21 22 21 21 22 22 22 19 17 15 15 16 19 21 23 24 26 27 28 29 30 31 31 31 32 31 29 26 24 24
7 7 7 7 8 8 10 11 11 9 10 11 11 11 11 11 11 13 12 12 13 12 12 15 18 18 18 20 19 15 15 17 18 16 15 17 21 24 25 25 24 22 20 19 20 22 23 22 22 21 21 20 21 21 22 21 20 20 20 21 22 23 23 22 22 21 19 16 14 14 14 15 17 19 22 24 25 26 27 28 28 28 29 30 29 28 27
9 8 8 10 10 9 9 10 10 9 11 12 11 10 12 12 14 15 13 12 14 15 13 14 18 20 20 20 20 18 17 17 17 17 19 22 24 25 24 23 21 20 19 20 21 23 24 23 22 21 20 18 17 19 21 22 22 23 23 23 24 24 23 23 23 23 22 21 19 16 14 14 14 14 14 17 19 21 23 24 23 23 23 25 26 26 26
10 11 11 11 10 9 8 9 9 9 11 13 12 12 15 17 17 17 16 16 17 18 17 16 19 20 20 20 20 19 17 18 19 20 21 22 23 23 22 21 20 20 21 22 23 23 23 23 22 22 21 20 18 19 20 21 22 23 24 24 24 24 23 23 23 22 22 21 21 20 18 17 18 17 15 13 14 15 18 21 22 20 19 19 20 20 22
10 11 12 11 9 8 7 8 9 10 12 14 14 14 17 20 20 19 19 19 19 20 20 20 21 21 21 20 20 19 19 20 19 18 19 21 22 21 20 20 22 23 23 23 23 22 22 22 22 22 21 20 20 20 20 20 20 21 21 22 22 22 22 22 22 22 21 20 19 19 19 19 19 19 18 17 16 16 17 21 22 20 19 18 18 18 19
7 7 7 8 9 9 9 11 12 12 13 15 15 16 17 18 17 16 15 15 16 19 20 21 21 20 19 20 20 20 19 18 18 18 18 19 19 19 22 25 25 23 22 22 22 22 22 22 22 22 20 19 19 21 21 21 21 21 21 22 22 22 21 20 20 20 20 19 19 19 19 19 19 18 18 18 18 18 19 22 23 22 20 19 19 20 21
5 5 5 6 9 11 12 13 13 12 13 15 15 16 17 15 13 11 10 11 14 16 16 18 19 19 18 20 21 19 17 17 18 17 16 17 20 24 28 29 25 20 20 21 22 22 23 23 22 20 17 15 16 19 21 22 22 22 22 22 21 20 19 18 17 18 20 19 19 18 18 18 18 16 16 16 16 16 18 21 23 23 22 20 19 19 21
5 6 7 8 10 12 13 12 11 11 11 12 12 12 13 12 11 10 10 12 13 13 14 18 19 18 19 20 18 18 18 19 19 17 18 23 28 30 29 27 23 19 19 21 22 22 23 22 21 20 19 16 16 16 18 20 22 22 22 21 20 20 19 17 17 17 18 18 17 17 17 16 16 16 15 15 16 16 17 19 21 22 22 21 19 18 17
7 7 8 9 10 12 12 11 10 10 10 10 11 11 11 11 11 10 10 10 10 12 16 19 19 18 19 18 16 17 19 19 19 20 24 28 29 27 25 23 20 19 21 22 22 22 21 21 22 23 22 21 20 19 20 21 21 20 20 20 20 20 19 18 17 16 16 15 15 14 13 14 14 14 15 15 16 15 15 16 16 19 20 19 18 17 15
8 8 8 8 9 10 11 9 9 9 9 9 11 11 10 10 11 10 9 9 11 15 18 19 18 19 20 18 16 18 19 19 22 24 26 26 24 23 22 21 19 21 23 22 21 21 20 19 21 23 22 22 21 21 21 21 20 19 18 18 18 19 18 18 16 14 13 13 13 13 13 13 12 11 12 13 13 15 14 13 13 14 17 16 15 15 14
9 8 7 8 9 10 10 9 9 9 9 9 9 9 11 13 13 12 12 14 16 17 18 18 19 20 20 18 19 20 19 19 22 24 24 24 22 21 21 21 20 21 21 20 20 21 19 18 18 19 20 21 20 19 19 19 19 18 17 16 16 17 18 18 17 16 14 12 10 10 12 14 14 13 13 13 13 15 16 13 11 11 11 12 11 11 10
8 7 7 8 9 10 10 9 8 7 8 8 9 10 12 14 14 15 17 18 17 17 19 20 20 20 20 21 23 22 19 16 17 20 22 22 22 23 24 24 21 20 19 19 20 20 17 16 17 17 17 18 18 18 18 18 17 16 16 15 15 16 18 18 18 17 15 12 11 11 12 13 14 14 14 14 14 14 13 12 9 8 6 6 6 6 6
7 7 7 8 9 9 9 9 8 8 9 8 8 10 13 14 15 16 17 17 16 16 18 19 19 20 23 25 24 21 18 15 15 18 21 22 24 26 27 25 22 20 20 20 20 18 16 16 17 16 15 15 16 19 20 18 16 15 14 13 13 14 17 19 18 16 14 12 12 13 13 10 10 10 10 11 12 11 10 8 6 4 1 1 2 3 4
11 8 7 8 10 11 10 10 11 11 10 9 9 13 15 15 15 16 16 17 17 16 17 17 18 21 25 27 25 20 17 16 18 21 22 23 25 27 26 24 23 21 20 18 17 17 15 15 15 14 14 14 16 18 18 16 14 13 14 12 11 13 16 18 17 15 13 12 10 10 9 7 6 8 9 9 9 8 5 4 3 1 3 3 2 2 2
13 12 9 10 12 13 12 12 12 12 12 11 12 15 16 16 16 17 18 19 20 20 21 23 24 24 26 27 25 21 19 20 22 23 21 21 24 26 24 22 22 21 20 18 16 15 15 14 13 12 12 12 13 15 15 13 10 10 12 12 11 12 16 18 17 14 13 10 7 6 7 6 5 6 7 6 5 4 2 2 4 6 7 7 5 2 3
13 14 13 13 14 13 13 14 14 14 15 14 14 15 17 18 18 18 19 21 22 24 25 27 27 26 26 26 25 23 21 22 23 22 20 20 22 23 21 20 20 20 19 17 15 14 15 15 13 11 11 13 14 13 12 11 9 9 10 9 9 11 15 17 16 13 11 8 6 7 7 6 5 5 5 3 3 2 1 3 6 10 10 4 2 6 7
10 12 13 14 14 13 14 16 16 17 17 15 14 15 17 17 17 18 21 23 24 26 27 28 27 25 25 25 23 22 22 22 21 21 21 20 18 16 17 18 19 18 17 15 13 15 16 16 13 11 10 13 16 16 12 10 10 11 10 9 8 10 12 13 13 13 10 8 8 9 7 4 2 2 2 2 2 2 2 5 8 11 10 7 9 9 7
8 10 12 14 13 13 13 15 15 16 16 15 14 13 13 13 16 21 22 22 24 27 27 27 25 22 22 23 22 21 22 22 21 21 22 18 12 10 14 17 17 17 17 14 13 17 19 17 13 10 10 13 17 17 13 11 12 12 9 6 5 6 8 9 12 13 11 8 10 10 7 4 3 3 3 4 5 5 5 5 6 8 9 9 9 8 7
9 11 13 13 12 12 12 13 14 16 17 16 15 15 13 11 16 22 22 21 24 27 27 26 24 22 21 23 24 23 22 23 23 22 20 15 10 10 15 17 18 19 18 15 15 19 21 17 13 11 10 13 17 18 15 13 11 9 6 4 4 5 5 6 9 9 7 7 9 10 8 6 5 5 4 5 5 6 6 6 6 6 8 9 8 6 6
13 14 14 13 11 12 13 13 14 16 17 17 18 19 18 15 17 22 23 22 24 25 25 24 25 24 22 23 24 24 23 23 24 23 18 14 12 14 18 18 19 20 18 15 17 22 21 16 13 13 12 13 17 19 16 13 10 6 5 6 8 7 5 4 6 7 5 4 6 7 6 5 5 5 4 3 2 2 2 3 5 6 7 8 7 5 5
16 16 16 14 13 13 14 15 15 15 16 17 18 19 19 20 22 24 24 23 23 23 23 23 24 24 24 24 24 23 22 23 24 22 18 14 12 13 16 19 21 21 18 16 18 22 20 15 13 13 13 13 16 17 16 14 10 6 5 7 8 7 6 5 5 5 5 4 4 5 4 4 2 2 2 1 2 2 3 3 2 3 4 5 5 4 4
19 18 17 17 16 16 17 17 16 15 16 18 19 18 20 24 26 26 24 23 23 22 23 24 24 24 25 25 24 23 23 24 24 21 18 14 11 11 15 20 22 22 20 18 17 19 20 15 11 10 13 14 15 15 16 15 11 7 6 7 7 7 6 5 4 5 6 6 5 4 2 1 2 2 1 0 0 2 4 3 1 1 2 2 1 1 3
20 20 20 20 20 20 19 17 17 18 19 20 20 20 22 24 26 26 25 24 22 23 25 26 25 25 26 26 25 25 27 29 28 24 19 15 13 13 17 21 22 22 22 20 17 18 20 16 10 10 14 16 14 13 15 15 12 8 6 7 9 9 8 6 5 6 6 6 6 6 5 4 4 4 3 2 2 3 4 4 3 2 2 2 3 3 4
21 21 22 22 21 21 20 19 21 24 22 19 18 20 23 24 25 25 24 23 23 24 26 26 25 26 26 26 25 25 26 27 27 25 21 17 14 16 21 22 21 22 23 20 17 17 19 17 13 13 15 15 13 13 13 14 13 9 5 6 9 11 9 9 9 10 10 10 10 9 8 8 8 8 7 7 7 7 7 7 7 5 4 5 5 4 3
20 19 22 23 21 19 19 21 23 23 19 15 16 17 20 23 25 24 23 22 24 26 26 25 25 26 26 25 24 24 25 25 24 23 22 18 16 19 22 22 19 20 22 21 18 18 19 18 18 18 18 15 14 14 15 15 15 12 7 6 7 9 10 12 13 12 13 14 14 12 11 12 13 12 11 10 10 9 9 10 10 9 8 7 6 5 4
15 16 21 24 23 21 20 21 20 17 15 16 18 19 21 23 25 23 21 23 26 25 24 25 26 25 25 25 24 23 22 22 22 22 22 21 19 21 24 22 20 20 21 21 21 21 18 17 20 23 21 16 14 15 15 16 16 15 11 8 8 9 10 13 13 10 9 10 11 11 10 11 11 10 10 11 11 12 12 12 12 11 9 9 8 8 7
16 18 21 22 22 21 20 19 17 15 15 19 22 23 23 24 24 22 22 26 27 24 22 24 27 27 25 24 24 24 23 21 21 21 21 21 22 25 26 24 22 21 21 22 24 22 18 16 20 24 21 17 15 15 14 15 16 16 15 12 11 10 10 9 9 8 7 8 8 7 6 7 7 7 7 8 8 7 7 9 11 12 11 10 9 8 8
19 19 17 17 19 20 19 18 18 18 18 20 24 25 24 22 20 19 21 25 27 24 20 20 24 26 25 23 22 23 23 22 21 21 20 19 22 26 28 26 23 22 23 24 24 22 18 17 21 22 19 16 15 15 14 14 15 16 16 15 14 13 12 10 9 9 9 8 6 6 7 8 8 8 7 7 7 6 6 7 9 11 11 11 11 12 12
19 17 16 17 20 20 20 20 21 21 20 21 26 28 25 22 19 19 19 21 23 22 19 17 18 21 22 22 20 19 18 17 17 19 21 21 22 24 26 26 26 25 24 24 23 22 20 20 21 20 18 17 17 17 16 15 16 16 16 16 16 15 13 11 9 9 9 8 6 6 5 5 6 7 8 8 10 10 10 9 9 9 10 11 12 13 13
20 19 18 19 20 22 22 22 21 20 19 22 28 29 26 22 21 20 19 19 21 22 21 20 19 19 19 19 20 19 17 13 11 13 19 23 26 26 27 28 27 26 24 24 24 23 22 21 21 20 20 20 20 19 19 19 19 18 17 17 17 17 15 12 10 9 9 9 8 9 10 9 9 9 9 9 10 11 11 10 9 9 9 10 11 11 10
Wind_Direction
261 299 340 354 30 24 312 281 263 273 278 248 226 206 189 162 133 162 175 159 151 159 159 151 150 146 140 138 135 133 134 130 126 122 117 115 116 118 128 148 167 181 203 160 127 119 114 113 113 110 104 99 95 87 81 77 73 70 67 61 57 55 53 48 45 46 47 44 41 39 37 38 40 42 43 46 48 50 51 53 52 49 48 48 49 48 48
282 29 49 20 22 23 14 14 353 341 337 283 244 218 154 122 133 151 156 153 144 147 148 142 139 135 130 130 132 135 137 133 129 127 123 122 124 131 144 158 169 183 175 120 110 105 98 97 102 100 85 80 84 83 79 76 72 69 68 62 57 57 55 49 46 48 49 46 42 41 40 40 41 44 48 50 49 49 50 53 54 54 53 51 48 47 48
323 19 51 30 31 39 28 13 4 3 3 343 276 183 112 96 106 127 131 123 108 127 130 126 126 127 126 130 134 137 137 135 134 131 126 125 130 137 151 161 168 177 148 119 114 109 103 95 88 85 79 78 84 84 79 76 72 69 67 61 56 57 57 53 49 50 50 47 44 44 44 43 44 47 50 52 51 49 50 52 52 53 53 51 47 45 47
340 4 30 30 37 33 20 10 3 355 354 1 10 60 95 119 125 123 123 124 130 135 127 122 126 129 131 135 137 138 138 137 136 132 129 132 137 143 154 157 143 127 110 100 100 108 110 101 90 84 81 84 88 86 81 77 73 69 66 61 58 58 57 55 53 53 52 49 48 49 48 49 49 49 52 53 52 51 50 49 50 50 50 49 48 46 48
321 340 14 48 56 28 348 345 4 345 338 354 5 19 36 113 135 136 144 154 150 141 134 132 136 137 138 143 143 142 142 137 132 129 130 136 140 144 145 121 88 72 56 49 66 85 90 92 94 89 85 89 91 88 84 79 73 69 66 62 59 59 57 56 55 55 53 51 50 52 52 52 51 50 51 52 51 51 51 50 49 49 48 48 49 49 50
297 317 6 49 77 336 268 275 16 340 357 24 15 20 38 62 106 110 126 142 143 143 140 139 141 142 143 146 145 142 139 135 131 132 136 139 139 135 119 94 73 55 43 42 59 71 73 82 92 91 88 91 90 86 82 78 73 71 68 63 59 58 58 58 56 55 54 53 54 55 55 54 53 51 50 49 49 50 50 50 50 48 47 48 50 50 50
100 335 33 63 191 234 264 331 358 343 89 68 25 358 40 70 96 103 112 131 139 138 135 132 132 133 130 131 133 133 132 130 131 134 134 128 123 116 101 89 73 60 53 48 49 49 58 78 84 84 89 90 87 83 80 77 75 73 71 65 61 59 58 57 57 56 56 56 57 57 57 56 55 53 51 49 49 50 51 51 50 49 47 48 49 50 50
102 59 77 136 225 266 330 6 356 346 93 79 26 342 24 62 108 121 123 132 133 126 125 123 120 117 107 92 88 115 126 127 126 126 119 107 102 99 98 96 87 75 66 57 51 48 63 83 83 83 87 88 85 83 80 78 77 75 71 68 65 62 60 59 59 58 58 59 59 58 57 57 54 52 51 50 49 51 53 54 53 52 50 49 48 48 49
115 115 125 162 314 323 322 328 255 239 130 102 102 317 5 42 96 124 128 130 130 126 123 121 118 112 103 84 56 76 103 108 106 104 103 101 98 96 97 98 97 93 83 70 64 64 72 81 86 87 87 86 85 83 81 80 78 75 73 72 69 67 64 63 63 62 62 63 63 61 61 60 58 57 55 53 52 52 54 55 54 53 52 51 50 49 49
108 109 116 62 43 273 250 209 198 221 190 126 116 104 336 360 102 133 135 132 132 130 126 126 124 115 107 105 99 94 98 100 100 101 102 103 103 101 103 104 103 100 94 84 78 76 74 79 87 91 89 88 87 84 82 82 79 76 74 73 72 70 67 66 66 66 65 65 65 65 64 64 64 64 63 61 59 58 58 57 56 55 55 54 53 51 51
122 114 128 157 165 221 247 202 174 199 214 141 120 101 292 258 156 140 136 134 138 139 137 137 134 126 124 133 145 126 111 106 106 108 107 108 108 108 111 110 105 102 100 93 87 82 77 80 89 93 91 90 88 86 85 83 80 77 76 75 76 74 72 70 69 68 67 66 65 65 64 64 64 64 65 65 63 61 60 58 57 57 56 56 55 53 53
126 115 119 161 185 225 295 345 314 244 271 118 129 169 231 195 160 147 142 141 142 144 144 141 136 135 141 147 150 133 117 108 108 111 112 116 118 118 117 113 109 108 103 95 90 85 79 84 94 96 95 94 93 91 90 87 85 83 82 82 81 80 77 74 70 67 66 65 65 65 64 63 63 62 62 62 61 60 59 58 56 55 56 57 56 54 54
120 109 105 51 278 220 171 325 279 250 285 79 144 203 205 158 147 144 140 140 141 142 142 134 110 103 121 128 130 121 112 106 106 110 115 121 124 124 122 118 114 110 103 96 93 86 81 90 100 101 99 99 98 96 93 90 90 91 89 86 83 79 77 74 70 66 65 65 66 68 69 69 68 66 63 62 61 61 60 59 58 55 54 56 56 54 54
136 107 107 128 288 268 155 278 266 216 161 208 202 185 149 143 143 138 133 137 137 128 114 105 106 108 113 119 120 115 112 110 111 115 119 121 119 117 115 112 107 103 98 95 93 88 86 93 100 102 99 94 93 94 92 91 93 94 91 88 85 80 77 75 72 67 66 68 69 70 72 74 72 69 68 67 65 63 62 61 61 58 55 55 56 55 54
131 98 96 130 186 229 259 290 292 176 165 200 166 120 118 132 135 133 134 136 128 117 112 114 118 118 118 119 120 116 114 114 114 118 120 119 117 116 115 111 107 102 97 94 94 92 93 95 98 99 97 92 90 90 89 92 97 96 91 88 87 84 82 80 77 71 68 69 70 69 70 73 72 70 70 69 67 63 62 61 61 60 57 55 55 55 54
140 132 153 186 205 240 253 224 96 62 101 126 121 117 121 128 129 130 132 128 120 121 124 124 122 122 123 123 122 119 119 119 119 121 122 121 120 119 116 111 108 105 102 100 98 98 98 98 98 99 98 96 94 92 91 95 99 98 94 89 87 88 88 86 83 76 71 70 70 70 70 70 70 68 67 68 68 65 63 61 59 59 59 56 54 53 52
137 131 169 223 234 355 57 85 92 84 84 89 98 107 115 122 126 126 126 125 125 127 128 127 125 126 125 121 119 119 121 124 125 123 120 118 117 116 113 111 109 108 108 107 105 103 102 102 102 103 102 100 97 96 99 101 100 101 100 95 91 92 93 93 91 84 78 74 72 71 71 69 68 67 65 65 65 64 64 61 59 59 60 58 55 52 50
109 68 33 325 73 73 73 77 78 80 84 89 93 96 98 106 114 119 125 129 131 131 131 128 125 126 126 121 119 123 125 127 127 125 123 122 121 119 117 115 114 113 112 110 108 106 105 104 103 103 104 104 102 102 105 107 105 106 105 101 98 97 95 96 95 90 85 81 77 75 74 72 71 69 67 66 64 63 63 61 60 61 63 63 60 55 51
138 63 340 53 84 91 89 83 80 78 78 81 88 93 97 101 108 118 126 127 127 129 130 128 126 126 126 124 123 125 126 123 122 121 122 122 120 119 119 120 121 120 117 115 113 110 108 106 104 103 103 103 105 107 107 106 107 107 106 107 108 106 100 96 94 93 91 90 86 82 78 76 74 72 70 68 65 62 61 60 60 61 62 63 61 56 52
110 124 177 107 84 87 86 85 91 91 89 90 91 96 105 110 113 119 122 123 127 129 128 128 126 124 125 126 125 123 114 105 105 109 114 118 117 116 118 121 122 120 117 115 114 111 109 108 107 106 104 103 105 108 107 107 108 105 102 104 109 113 111 103 96 94 94 92 90 88 84 79 77 75 73 71 69 65 61 59 59 59 59 60 59 56 53
99 115 144 114 90 77 72 84 94 93 95 100 101 105 114 118 117 115 113 114 122 123 121 123 121 118 116 110 107 106 101 99 101 105 111 115 114 111 114 117 117 114 112 113 113 113 115 117 118 116 112 110 108 105 103 104 104 100 95 93 94 99 109 111 104 97 95 93 91 90 88 85 82 79 77 76 74 72 67 63 61 60 59 58 57 55 54
143 173 160 133 114 102 95 99 100 99 101 105 107 113 118 118 119 119 116 112 110 109 112 118 118 116 113 109 107 108 107 108 111 113 116 118 116 112 113 115 115 112 111 112 111 111 113 115 116 114 113 113 113 112 107 104 101 98 95 93 91 92 97 105 110 106 100 96 93 92 92 91 89 86 83 80 78 76 72 67 64 63 62 61 60 59 59
173 173 151 121 105 110 113 108 104 106 110 113 116 121 122 120 123 125 123 120 115 105 106 115 120 121 122 122 121 116 111 116 120 119 122 130 129 120 115 114 112 111 112 112 109 107 106 105 102 100 98 98 102 109 112 111 107 104 100 96 94 93 91 92 96 102 104 103 100 96 94 92 92 91 89 84 81 79 75 70 66 65 64 64 64 64 64
133 139 129 107 102 114 121 117 114 115 119 122 126 129 127 127 130 129 127 126 125 120 115 118 123 124 124 125 126 124 125 132 135 128 124 128 126 118 115 116 117 118 119 117 112 109 107 104 100 97 94 92 94 99 104 107 109 110 107 100 95 93 92 90 89 90 93 96 100 103 100 94 91 93 95 92 86 80 76 71 68 66 65 64 64 64 64
122 125 117 108 110 118 119 117 119 122 126 128 129 128 126 125 126 126 125 123 125 128 129 128 128 129 128 129 132 134 137 142 142 130 119 118 119 119 120 123 124 123 121 117 113 111 110 108 106 104 101 99 100 101 102 103 103 103 101 98 93 90 90 90 89 87 87 86 87 91 97 96 89 86 93 100 95 84 76 70 66 63 62 62 62 62 62
108 112 108 105 108 113 114 114 118 124 127 128 127 127 129 131 130 130 128 128 131 133 131 128 128 130 130 132 135 137 136 135 134 128 121 119 123 128 132 132 126 121 118 115 114 114 113 112 113 113 111 110 110 110 108 104 101 99 96 94 93 91 88 87 87 87 87 86 83 83 86 90 88 79 75 88 100 93 79 70 65 61 58 57 56 56 57
100 110 114 115 116 119 120 119 118 117 117 119 121 126 130 131 129 126 124 125 127 127 125 126 127 130 133 136 136 136 135 134 134 133 132 134 139 145 143 132 122 119 119 117 116 116 114 112 111 109 108 109 113 117 116 111 106 103 101 98 96 95 92 89 88 88 89 88 87 85 83 84 85 79 72 80 98 101 87 75 69 63 61 60 54 47 47
90 97 108 121 129 130 123 116 115 113 111 113 116 119 120 118 116 115 117 119 120 121 124 131 135 137 140 141 140 139 140 141 143 146 148 150 153 149 137 127 122 123 124 122 120 119 115 111 107 103 101 104 109 113 117 116 111 108 108 106 102 100 98 97 96 95 94 90 87 86 83 83 84 81 76 82 98 104 92 79 72 68 67 66 62 55 54
72 72 74 92 113 118 115 114 115 115 114 114 114 115 117 117 117 118 121 124 126 127 130 135 137 139 140 142 143 146 146 147 152 157 155 146 139 133 127 125 126 128 125 122 121 119 114 110 107 105 109 117 117 113 113 113 110 108 110 111 109 106 103 99 98 101 101 98 92 90 88 86 84 82 77 76 85 99 97 84 74 72 70 68 65 62 59
77 83 89 99 111 114 115 118 119 118 119 119 116 116 119 121 123 125 128 132 135 134 133 134 136 139 143 146 148 150 151 154 158 157 140 127 127 128 128 129 133 133 128 124 123 121 119 119 118 116 116 123 127 125 119 114 110 108 109 109 109 106 101 95 93 95 98 98 97 98 100 97 92 89 86 76 72 87 102 94 79 76 76 71 65 60 55
95 91 100 111 118 118 119 121 121 120 122 124 124 127 129 127 129 134 135 136 138 135 134 138 143 147 152 155 154 150 147 145 145 139 129 125 127 131 133 137 140 137 131 129 128 129 130 132 133 129 120 113 116 121 121 116 113 111 109 108 107 105 101 98 96 93 87 84 85 91 99 105 103 99 97 88 76 81 103 109 92 79 77 74 68 62 54
111 108 111 118 121 121 123 127 128 131 135 136 137 139 141 139 141 141 138 138 140 139 141 148 153 156 159 161 153 143 136 130 127 127 125 124 129 135 139 142 141 136 134 136 138 139 136 132 133 136 132 121 114 114 116 117 117 115 113 114 115 114 111 108 106 102 93 81 75 73 75 80 89 98 103 97 81 73 87 109 110 90 76 73 72 66 58
138 141 141 138 134 132 133 136 138 140 141 139 138 138 138 139 141 142 142 145 147 148 152 159 163 163 164 157 144 139 136 129 125 127 130 135 142 146 145 142 138 135 135 136 134 132 129 124 125 133 137 133 126 122 120 121 121 120 121 124 126 127 124 116 108 106 103 92 80 77 73 67 72 87 95 89 76 66 65 80 104 103 82 70 68 65 63
151 151 146 141 140 142 142 141 140 137 135 134 133 132 134 139 141 142 145 152 156 159 163 166 165 161 155 145 138 139 141 137 133 137 145 149 149 145 141 140 140 137 134 131 129 128 128 128 129 130 133 136 138 139 136 132 129 127 127 126 127 131 132 125 113 107 107 102 94 96 90 74 70 81 85 80 78 71 58 59 83 102 91 70 60 61 70
135 128 126 131 136 139 139 139 138 137 138 140 139 138 143 149 150 148 151 158 163 163 163 165 164 154 142 137 137 142 148 149 146 147 150 148 142 139 140 141 141 137 129 128 133 136 135 134 136 135 132 131 133 138 143 144 143 141 139 134 131 136 141 136 122 110 110 114 112 109 104 89 79 86 85 77 75 70 54 55 80 105 108 24 31 47 69
139 133 127 131 134 134 135 139 142 146 149 148 144 149 154 153 146 145 150 153 153 149 146 150 152 143 133 134 140 145 148 147 139 134 136 138 138 139 141 141 139 134 125 122 131 139 137 136 139 141 139 134 128 131 140 146 145 147 153 152 144 145 147 140 126 114 114 119 123 125 123 111 97 103 104 93 83 74 56 49 53 350 285 281 319 12 50
147 148 147 149 150 148 150 154 154 153 149 140 139 149 152 141 129 132 138 139 138 134 131 133 137 134 130 135 142 144 141 138 133 127 128 134 139 140 140 139 140 137 130 127 136 144 143 144 147 152 157 156 145 139 144 150 149 152 164 170 166 158 152 144 137 134 133 129 126 133 136 126 108 110 115 112 104 96 74 352 339 335 316 297 300 9 65
142 144 144 146 146 143 147 151 147 141 137 131 129 136 138 130 126 128 128 127 130 133 130 128 129 129 128 132 137 138 138 138 133 127 125 130 136 141 144 145 146 144 141 142 150 156 156 153 152 155 167 174 169 158 153 152 148 147 152 155 152 152 153 151 148 145 139 132 129 131 130 124 118 117 117 131 163 158 102 8 352 349 345 337 119 104 87
131 130 131 130 126 123 130 134 129 126 131 133 128 128 132 132 129 126 123 125 131 134 131 127 127 128 128 130 133 138 143 143 138 133 131 132 135 142 146 150 153 154 153 154 160 165 166 160 152 152 166 175 174 169 160 147 138 133 130 127 129 138 149 158 157 148 137 128 131 131 123 111 120 136 119 125 170 167 99 49 23 15 27 72 113 113 89
115 118 125 128 126 123 125 126 123 126 134 136 132 137 145 139 125 122 124 129 134 135 134 131 130 129 131 135 138 143 148 150 147 142 140 143 151 154 151 155 162 165 166 167 168 168 167 162 154 154 164 171 172 170 160 143 138 136 131 129 134 133 134 146 153 152 150 150 152 152 147 130 112 96 74 71 76 79 76 58 30 21 39 68 88 92 83
123 126 128 130 130 130 132 133 135 141 147 148 147 158 169 155 128 127 133 138 139 140 141 140 138 138 140 143 146 149 153 156 158 156 156 163 174 160 151 158 169 171 170 171 170 167 166 162 157 158 165 172 175 173 163 151 152 152 142 138 144 136 131 142 151 155 163 169 168 172 178 169 137 112 89 74 61 52 51 51 43 40 48 57 61 65 68
143 144 143 143 147 150 153 153 152 154 162 167 169 175 183 177 152 144 147 148 146 146 149 150 149 149 149 150 151 154 159 163 167 171 176 185 179 160 154 161 168 170 171 171 168 167 168 166 162 164 168 172 176 178 176 172 171 169 160 156 158 159 168 169 156 150 150 148 148 152 151 138 125 118 111 95 61 42 56 60 55 51 46 39 33 37 50
153 153 154 160 164 162 160 162 164 165 169 173 174 174 172 162 151 147 150 153 152 151 153 154 154 154 154 155 156 159 165 171 176 181 187 190 185 176 173 170 169 171 174 174 170 172 175 172 166 170 176 177 176 181 187 187 181 177 183 183 177 177 182 180 170 174 177 161 136 129 122 107 105 138 154 234 268 224 173 141 91 48 24 17 28 55 61
160 160 161 167 170 168 168 172 174 171 169 173 176 171 158 148 146 150 154 158 159 158 157 157 157 156 158 160 162 164 170 176 182 188 196 201 208 208 194 181 175 177 178 176 175 180 184 181 176 180 187 187 186 190 195 198 199 204 212 206 193 184 183 185 191 201 195 179 162 159 164 197 257 232 195 181 235 169 152 146 142 335 336 337 347 34 8
169 169 167 168 170 175 181 181 173 169 172 174 173 167 158 151 152 156 160 164 166 163 160 159 159 159 161 164 167 170 175 181 186 192 199 209 220 216 199 186 181 180 180 179 181 186 188 188 188 187 187 189 193 199 205 210 216 227 234 219 201 193 197 208 212 205 197 191 192 201 213 222 218 205 196 209 221 208 205 216 240 281 298 260 251 289 327
177 174 171 172 174 181 185 178 166 166 170 164 153 152 155 154 155 161 168 170 167 162 160 161 163 163 165 168 170 171 178 186 192 195 201 211 216 205 193 185 181 182 184 185 185 185 188 191 193 191 191 197 206 213 216 219 220 224 237 230 210 199 201 216 224 221 217 213 208 207 213 219 219 225 245 259 254 242 236 234 234 234 228 227 242 274 298
180 172 170 175 177 173 168 160 156 159 160 148 140 148 155 155 158 166 172 169 162 161 163 165 166 167 169 171 171 172 179 189 197 205 213 218 209 191 184 182 181 183 186 186 183 183 189 198 204 204 203 205 209 213 217 222 225 228 235 242 235 226 223 227 232 234 230 225 221 220 222 225 230 241 255 258 250 243 242 240 236 229 219 214 222 229 217
173 156 155 162 164 160 156 156 157 159 156 148 149 155 158 158 163 171 169 161 160 166 168 167 168 170 174 175 174 176 181 188 198 209 219 218 204 189 186 187 185 183 184 185 184 187 196 209 213 210 206 202 201 206 212 220 227 232 233 238 257 266 253 237 234 239 235 222 216 215 216 220 227 238 246 250 253 258 256 248 239 229 219 219 226 229 233
164 155 155 159 162 164 164 162 160 162 160 154 154 158 160 163 169 172 165 160 165 174 176 173 172 174 177 181 184 186 189 194 203 210 215 216 209 199 193 190 186 184 185 188 190 193 200 208 208 205 203 202 202 205 210 218 228 233 234 238 257 278 279 260 243 234 219 204 201 214 232 242 247 249 244 242 250 261 259 245 235 227 222 226 236 246 262
162 166 172 172 170 170 167 160 159 165 164 155 154 159 164 166 170 172 166 164 170 179 183 179 177 178 182 190 195 195 196 203 211 210 205 206 206 199 192 190 189 189 189 192 196 198 198 197 197 198 200 204 206 206 209 217 225 229 233 239 250 265 278 280 262 238 225 220 228 254 269 270 265 261 255 249 254 270 280 269 254 246 242 245 254 264 271
173 180 182 173 164 159 155 153 158 167 167 158 157 163 168 170 172 174 171 168 172 178 181 180 179 181 186 195 203 205 206 213 218 210 198 194 196 195 193 194 195 193 191 195 200 201 195 193 198 202 206 209 212 213 216 220 223 225 230 238 247 258 270 277 266 244 237 239 245 251 256 257 255 253 254 256 263 274 282 279 266 255 253 257 264 270 273
182 184 179 168 159 155 155 159 167 174 172 163 161 165 170 174 175 178 180 179 178 180 182 183 184 187 192 199 207 214 220 225 223 206 192 188 190 193 196 196 195 193 193 197 203 206 205 204 208 214 218 219 221 224 225 225 225 226 227 231 238 247 257 265 265 255 249 252 253 250 249 250 253 257 262 265 266 270 273 271 265 261 264 270 273 271 266